(148335) = 2000 QJ159 = 2004 ER27

Discovered at Socorro on 2000-08-31 by LINEAR.

Orbit

Orbit type: Main Belt

Note: WebGL enabled browser required.

epoch2024-03-31.0
epoch JD2460400.5
perihelion date2021-01-11.05593
perihelion JD2459225.55593
argument of perihelion (°)120.13303
ascending node (°)172.03023
inclination (°)17.02263
eccentricity0.2409736
perihelion distance (AU)2.2605211
Tisserand w.r.t. Jupiter3.2
ΔV w.r.t. Earth (km/sec)10.8
semimajor axis (AU)2.9781850
mean anomaly (°)225.31678
mean daily motion (°/day)0.19176810
aphelion distance (AU)3.696
period (years)5.14
P-vector [x]0.38250040
P-vector [y]-0.91597626
P-vector [z]-0.12116486
Q-vector [x]0.92306332
Q-vector [y]0.38459207
Q-vector [z]0.00656038
absolute magnitude15.57
phase slope0.15
uncertainty0
referenceMPEC 2024-F28
observations used700
oppositions18
arc length (days)8616
first opposition used2000
last opposition used2024
residual rms (arc-secs)0.68
perturbers coarse indicatorM-v
perturbers precise indicator003Ek
first observation date used2000-07-30.0
last observation date used2024-03-02.0
computer nameMPCLINUX
JD of orbit computation2456760.874897
perihelion JD uncertainty (days)6.6477E-05
argument of perihelion uncertainty (°)1.4235E-05
ascending node uncertainty (°)1.1230E-05
inclination uncertainty (°)4.3372E-06
eccentricity uncertainty 3.2984E-08
perihelion distance uncertainty (AU)1.0242E-07
Minimum Orbit Intersection Distances (in AU)
for orbit epoch: 2460400.5, reference: E2024-FB1
Mercury1.84698
Venus1.57567
Earth1.29753
Mars0.97764
Jupiter1.89622
Saturn5.58003
Uranus14.9924
Neptune26.5312

Observations

716 total observations over interval: 2000 07 30.30300 – 2024 03 02.161609
These data are available for download (format description).

Date (UT) J2000 RA J2000 Dec Magn Location Ref
2000 07 30.30300 21 08 48.53 +03 03 56.5 18.2   704 – Lincoln Laboratory ETS, New Mexico MPS 19423
2000 07 30.31653 21 08 47.94 +03 03 46.9 17.9   704 – Lincoln Laboratory ETS, New Mexico MPS 19423
2000 07 30.33013 21 08 47.43 +03 03 40.1 18.6   704 – Lincoln Laboratory ETS, New Mexico MPS 19423
2000 07 30.34361 21 08 46.93 +03 03 32.9 18.7   704 – Lincoln Laboratory ETS, New Mexico MPS 19423
2000 07 30.35814 21 08 46.27 +03 03 25.1 18.3   704 – Lincoln Laboratory ETS, New Mexico MPS 19423
2000 08 03.29540 21 06 14.82 +02 26 00.8 18.7   704 – Lincoln Laboratory ETS, New Mexico MPS 19423
2000 08 03.30958 21 06 14.32 +02 25 54.1 18.3   704 – Lincoln Laboratory ETS, New Mexico MPS 19423
2000 08 03.32382 21 06 13.62 +02 25 45.8 19.0   704 – Lincoln Laboratory ETS, New Mexico MPS 19423
2000 08 03.33802 21 06 13.10 +02 25 38.8 19.0   704 – Lincoln Laboratory ETS, New Mexico MPS 19423
2000 08 31.13664 20 50 47.74 -03 12 38.6 18.6 V 691 – Steward Observatory, Kitt Peak-Spacewatch MPS 18323
2000 08 31.15710 20 50 47.32 -03 12 54.2 19.3 V 691 – Steward Observatory, Kitt Peak-Spacewatch MPS 18323
2000 08 31.17788 20 50 46.85 -03 13 10.4 19.3 V 691 – Steward Observatory, Kitt Peak-Spacewatch MPS 18323
2000 08 31.24870 20 50 45.22 -03 14 05.2 18.7   704 – Lincoln Laboratory ETS, New Mexico MPS 18323
2000 08 31.26470 20 50 44.90 -03 14 17.7 19.1   704 – Lincoln Laboratory ETS, New Mexico MPS 18323
2000 08 31.28103 20 50 44.48 -03 14 30.4 18.6   704 – Lincoln Laboratory ETS, New Mexico MPS 18323
2000 08 31.29429 20 50 44.23 -03 14 39.7 19.0   704 – Lincoln Laboratory ETS, New Mexico MPS 18323
2000 09 03.20115 20 49 51.25 -03 52 05.0 19.1   704 – Lincoln Laboratory ETS, New Mexico MPS 18323
2000 09 03.21383 20 49 51.02 -03 52 14.2 19.1   704 – Lincoln Laboratory ETS, New Mexico MPS 18323
2000 09 03.22653 20 49 50.79 -03 52 25.5 20.2   704 – Lincoln Laboratory ETS, New Mexico MPS 18323
2000 09 03.23991 20 49 50.59 -03 52 34.8 19.0   704 – Lincoln Laboratory ETS, New Mexico MPS 18323
2000 09 04.12604 20 49 37.06 -04 03 52.5 19.2 V 691 – Steward Observatory, Kitt Peak-Spacewatch MPS 18323
2000 09 04.14717 20 49 36.72 -04 04 08.5 19.7 V 691 – Steward Observatory, Kitt Peak-Spacewatch MPS 18323
2000 09 04.16856 20 49 36.35 -04 04 24.4 19.0 V 691 – Steward Observatory, Kitt Peak-Spacewatch MPS 18323
2000 09 23.11315 20 49 34.46 -07 42 44.3 19.0   704 – Lincoln Laboratory ETS, New Mexico MPS 19423
2000 09 23.12792 20 49 34.62 -07 42 53.5 19.6   704 – Lincoln Laboratory ETS, New Mexico MPS 19423
2000 09 23.14272 20 49 34.80 -07 43 01.6 19.1   704 – Lincoln Laboratory ETS, New Mexico MPS 19423
2000 09 23.17217 20 49 35.20 -07 43 19.7 19.4   704 – Lincoln Laboratory ETS, New Mexico MPS 19423
2002 01 13.163950 03 38 56.104 -00 51 23.27 21.48 V 645 – Apache Point-Sloan Digital Sky Survey MPS 103810
2002 01 13.167422 03 38 56.094 -00 51 22.23 22.23   645 – Apache Point-Sloan Digital Sky Survey MPS 103810
2002 01 14.163320 03 38 51.752 -00 46 52.17 21.27 V 645 – Apache Point-Sloan Digital Sky Survey MPS 103810
2002 01 14.166792 03 38 51.733 -00 46 51.26 21.86   645 – Apache Point-Sloan Digital Sky Survey MPS 103810
2004 02 26.34110 11 38 21.84 +00 51 56.2 20.7   704 – Lincoln Laboratory ETS, New Mexico MPS 106265
2004 02 26.35217 11 38 21.45 +00 52 00.7 20.3   704 – Lincoln Laboratory ETS, New Mexico MPS 106265
2004 02 26.36328 11 38 21.00 +00 52 07.1 20.2   704 – Lincoln Laboratory ETS, New Mexico MPS 106265
2004 02 26.37445 11 38 20.49 +00 52 10.9 20.0   704 – Lincoln Laboratory ETS, New Mexico MPS 106265
2004 03 15.19890 11 26 03.21 +03 28 25.6 20.3 V 691 – Steward Observatory, Kitt Peak-Spacewatch MPS 101320
2004 03 15.23090 11 26 01.79 +03 28 43.0 20.2 V 691 – Steward Observatory, Kitt Peak-Spacewatch MPS 101320
2004 03 15.25758 11 26 00.59 +03 28 57.3 20.2 V 691 – Steward Observatory, Kitt Peak-Spacewatch MPS 101320
2004 03 16.25278 11 25 17.53 +03 38 01.1 20.2 V 291 – LPL/Spacewatch II MPS 101320
2004 03 16.27620 11 25 16.48 +03 38 13.9 20.3 V 291 – LPL/Spacewatch II MPS 101320
2004 03 16.29933 11 25 15.44 +03 38 26.5 20.2 V 291 – LPL/Spacewatch II MPS 101320
2004 03 17.32256 11 24 31.10 +03 47 46.0 20.4   704 – Lincoln Laboratory ETS, New Mexico MPS 106265
2004 03 17.33388 11 24 30.80 +03 47 50.9 20.3   704 – Lincoln Laboratory ETS, New Mexico MPS 106265
2004 03 17.34519 11 24 30.05 +03 47 57.1 20.4   704 – Lincoln Laboratory ETS, New Mexico MPS 106265
2004 03 17.35645 11 24 29.78 +03 48 01.7 19.8   704 – Lincoln Laboratory ETS, New Mexico MPS 106265
2004 03 23.22708 11 20 21.01 +04 40 51.2 20.1   704 – Lincoln Laboratory ETS, New Mexico MPS 102299
2004 03 23.24914 11 20 20.11 +04 41 04.2 20.0   704 – Lincoln Laboratory ETS, New Mexico MPS 102299
2004 03 23.26056 11 20 19.64 +04 41 09.3 20.1   704 – Lincoln Laboratory ETS, New Mexico MPS 102299
2004 03 31.22922 11 15 06.66 +05 49 27.4 21.4 V 691 – Steward Observatory, Kitt Peak-Spacewatch MPS 103203
2004 03 31.26196 11 15 05.40 +05 49 44.3 20.4 V 691 – Steward Observatory, Kitt Peak-Spacewatch MPS 103203
2004 03 31.28878 11 15 04.39 +05 49 57.4 20.8 V 691 – Steward Observatory, Kitt Peak-Spacewatch MPS 103203
2004 04 12.12798 11 08 50.93 +07 18 46.3 21.1 V 691 – Steward Observatory, Kitt Peak-Spacewatch MPS 104358
2004 04 12.16423 11 08 49.92 +07 19 01.0 21.0 V 691 – Steward Observatory, Kitt Peak-Spacewatch MPS 104358
2004 04 12.19193 11 08 49.16 +07 19 12.2 20.9 V 691 – Steward Observatory, Kitt Peak-Spacewatch MPS 104358
2005 07 28.22098 18 55 10.33 +02 19 56.6 18.4   704 – Lincoln Laboratory ETS, New Mexico MPS 138594
2005 07 28.23226 18 55 09.95 +02 19 49.6 18.8   704 – Lincoln Laboratory ETS, New Mexico MPS 138594
2005 07 28.24354 18 55 09.61 +02 19 42.9 18.6   704 – Lincoln Laboratory ETS, New Mexico MPS 138594
2005 07 28.25482 18 55 09.22 +02 19 36.2 19.0   704 – Lincoln Laboratory ETS, New Mexico MPS 138594
2005 07 28.26614 18 55 08.79 +02 19 30.0 19.0   704 – Lincoln Laboratory ETS, New Mexico MPS 138594
2006 10 13.47528 03 39 45.84 +00 39 26.3 20.8   705 – Apache Point MPS 195425
2006 10 13.47611 03 39 45.82 +00 39 25.8 20.3 V 705 – Apache Point MPS 195425
2006 10 20.47434 03 35 52.14 -00 16 00.8 20.7   705 – Apache Point MPS 195425
2006 10 20.47516 03 35 52.11 -00 16 01.2 20.2 V 705 – Apache Point MPS 195425
2006 10 27.47051 03 31 11.38 -01 08 25.7 20.1   705 – Apache Point MPS 195425
2006 10 27.47134 03 31 11.34 -01 08 26.1 20.0 V 705 – Apache Point MPS 195425
2006 11 16.29069 03 15 46.18 -03 04 04.1 20.5 V 703 – Catalina Sky Survey MPS 186754
2006 11 16.30196 03 15 45.82 -03 04 09.0 20.5 V 703 – Catalina Sky Survey MPS 186754
2006 11 16.31325 03 15 45.03 -03 04 11.1 20.4 V 703 – Catalina Sky Survey MPS 186754
2006 11 16.32458 03 15 44.67 -03 04 14.6 20.7 V 703 – Catalina Sky Survey MPS 186754
2009 01 28.32342 11 02 49.00 -00 42 02.6   291 – LPL/Spacewatch II MPS 275817
2009 01 28.32721 11 02 48.92 -00 42 01.4   291 – LPL/Spacewatch II MPS 275817
2009 01 28.33107 11 02 48.84 -00 42 00.6   291 – LPL/Spacewatch II MPS 275817
2009 02 03.46316 11 00 06.92 -00 12 23.3 20.5 V 691 – Steward Observatory, Kitt Peak-Spacewatch MPS 275817
2009 02 03.48125 11 00 06.39 -00 12 17.6 20.3 V 691 – Steward Observatory, Kitt Peak-Spacewatch MPS 275817
2009 02 03.49933 11 00 05.83 -00 12 11.6 20.4 V 691 – Steward Observatory, Kitt Peak-Spacewatch MPS 275817
2009 02 27.29266 10 44 58.48 +02 32 20.1 20.4 V 703 – Catalina Sky Survey MPS 278407
2009 02 27.30285 10 44 57.98 +02 32 24.1 20.8 V 703 – Catalina Sky Survey MPS 278407
2009 02 27.31304 10 44 57.55 +02 32 28.8 20.6 V 703 – Catalina Sky Survey MPS 278407
2009 02 27.32320 10 44 57.15 +02 32 33.9 20.1 V 703 – Catalina Sky Survey MPS 278407
2009 03 03.93873 10 41 35.03 +03 10 36.3 19.5 V A50 – Andrushivka Astronomical Observatory MPS 279941
2009 03 03.94028 10 41 34.97 +03 10 37.1 19.0 V A50 – Andrushivka Astronomical Observatory MPS 279941
2009 03 03.94181 10 41 34.94 +03 10 36.9 19.5 V A50 – Andrushivka Astronomical Observatory MPS 279941
2009 04 20.20700 10 19 05.05 +08 48 05.6 20.8 V G96 – Mt. Lemmon Survey MPS 285477
2009 04 20.21372 10 19 05.01 +08 48 07.6 20.9 V G96 – Mt. Lemmon Survey MPS 285477
